Tracking 30995 objects as of 7-Jul-2025
HD Live streaming from Space Station
objects crossing your sky now

STARLINK-32360

Track STARLINK-32360 now!
10-day predictions
STARLINK-32360 is classified as:


NORAD ID: 61007
Int'l Code: 2024-158T
Perigee: 481.4 km
Apogee: 483.3 km
Inclination: 53.2 °
Period: 94.1 minutes
Semi major axis: 6853 km
RCS: Unknown
Launch date: September 5, 2024
Source: United States (US)
Launch site: AIR FORCE EASTERN TEST RANGE (AFETR)
Your satellite tracking list
SL-8 DEB *
Track 1 satellite(s)




NASA's NSSDC Master Catalog

Two Line Element Set (TLE):
1 61007U 24158T   25187.85956808  .00000785  00000-0  38646-4 0  9997
2 61007  53.1597 112.0883 0001357  85.9990 274.1166 15.30192452 48174
Source of the keplerian elements: AFSPC